Mobridge, SD

4:33 AM CST on January 16, 2018 (GMT -0600)
Mobridge Municipal

Weather History for KMBG - March, 2015

Change the Weather History Date:

Saturday, March 14, 2015

  Actual Average Record
Temperature  
Mean Temperature 50 °F 31 °F  
Max Temperature 71 °F 41 °F 75 °F (2016)
Min Temperature 28 °F 20 °F -5 °F (1969)
Degree Days  
Heating Degree Days 15 34  
Month to date heating degree days 420 517  
Since 1 July heating degree days 6179 6492  
Cooling Degree Days 0 0  
Month to date cooling degree days 0 0  
Year to date cooling degree days 0 0  
Moisture  
Dew Point 28 °F    
Average Humidity 51    
Maximum Humidity 82    
Minimum Humidity 19    
Precipitation  
Precipitation 0.00 in 0.03 in 1.52 in (1973)
Month to date precipitation T 0.34  
Year to date precipitation 0.80 1.07  
Snow  
Snow 0.00 in - - ()
Month to date snowfall T  
Since 1 July snowfall 18.7  
Snow Depth 0.00 in    
Sea Level Pressure  
Sea Level Pressure 30.09 in    
Wind  
Wind Speed 12 mph (SE)    
Max Wind Speed 24 mph    
Max Gust Speed 31 mph    
Visibility 10 miles    
Events      
T = Trace of Precipitation, MM = Missing Value Source: NWS Daily Summary

Daily Weather History Graph

Daily Weather History Graph

Search for Another Location

Airport or City:

Trip Planner

Search our weather history database for the weather conditions in past years. The results will help you decide how hot, cold, wet, or windy it might be!

Date:

Astronomy

Mar. 14, 2015 Rise Set
Actual Time 7:56 AM CDT 7:45 PM CDT
Civil Twilight 7:26 AM CDT 8:15 PM CDT
Nautical Twilight 6:52 AM CDT 8:50 PM CDT
Astronomical Twilight 6:17 AM CDT 9:25 PM CDT
Moon 3:39 AM CDT (3/14) 1:23 PM CDT (3/14)
Length of Visible Light 12h 48m
Length of Day
11h 49m
Last Quarter, 40% of the Moon is Illuminated
Mar 14
Last Quarter
Mar 20
New
Mar 27
First Quarter
Apr 4
Full
Apr 11
Last Quarter

Hourly Weather History & Observations

Time (CDT) Temp. Windchill Dew Point Humidity Pressure Visibility Wind Dir Wind Speed Gust Speed Precip Events Conditions
12:52 AM 30.9 °F 27.5 °F 25.0 °F 79% 30.30 in 10.0 mi SE 3.5 mph - N/A   Clear
1:52 AM 34.0 °F 29.8 °F 26.1 °F 73% 30.29 in 10.0 mi SE 4.6 mph - N/A   Clear
2:52 AM 35.1 °F 31.0 °F 27.0 °F 72% 30.28 in 10.0 mi ESE 4.6 mph - N/A   Clear
3:52 AM 32.0 °F 27.5 °F 25.0 °F 75% 30.28 in 10.0 mi ESE 4.6 mph - N/A   Clear
4:52 AM 33.1 °F 30.0 °F 26.1 °F 75% 30.26 in 10.0 mi ESE 3.5 mph - N/A   Clear
5:52 AM 33.1 °F 28.7 °F 26.1 °F 75% 30.27 in 10.0 mi East 4.6 mph - N/A   Clear
6:52 AM 32.0 °F 26.4 °F 26.1 °F 79% 30.27 in 10.0 mi ESE 5.8 mph - N/A   Clear
7:52 AM 32.0 °F 25.6 °F 26.1 °F 79% 30.27 in 10.0 mi ESE 6.9 mph - N/A   Clear
8:52 AM 34.0 °F 27.2 °F 28.0 °F 79% 30.27 in 10.0 mi SE 8.1 mph - N/A   Clear
9:52 AM 39.9 °F 35.1 °F 30.0 °F 68% 30.26 in 10.0 mi SE 6.9 mph - N/A   Clear
10:52 AM 48.0 °F - 33.1 °F 56% 30.22 in 10.0 mi SSE 9.2 mph - N/A   Clear
11:52 AM 54.0 °F - 33.1 °F 45% 30.17 in 10.0 mi SSE 10.4 mph - N/A   Clear
12:52 PM 66.9 °F - 27.0 °F 22% 30.12 in 10.0 mi SSW 17.3 mph 23.0 mph N/A   Clear
1:52 PM 68.0 °F - 27.0 °F 21% 30.07 in 10.0 mi South 18.4 mph 26.5 mph N/A   Clear
2:52 PM 71.1 °F - 27.0 °F 19% 30.02 in 10.0 mi SSW 20.7 mph 27.6 mph N/A   Clear
3:52 PM 70.0 °F - 27.0 °F 20% 29.97 in 10.0 mi South 21.9 mph 31.1 mph N/A   Clear
4:52 PM 71.1 °F - 27.0 °F 19% 29.94 in 10.0 mi South 21.9 mph 28.8 mph N/A   Clear
5:52 PM 66.9 °F - 28.9 °F 24% 29.91 in 10.0 mi SSE 16.1 mph - N/A   Clear
6:52 PM 63.0 °F - 30.0 °F 29% 29.89 in 10.0 mi SE 15.0 mph - N/A   Clear
7:52 PM 60.1 °F - 30.0 °F 32% 29.85 in 10.0 mi SE 16.1 mph - N/A   Clear
8:52 PM 57.0 °F - 30.9 °F 37% 29.83 in 10.0 mi SE 16.1 mph - N/A   Clear
9:52 PM 55.9 °F - 30.9 °F 39% 29.81 in 10.0 mi SSE 9.2 mph - N/A   Clear
10:52 PM 54.0 °F - 30.9 °F 41% 29.79 in 10.0 mi SE 13.8 mph - N/A   Clear
11:52 PM 54.0 °F - 30.9 °F 41% 29.76 in 10.0 mi SSE 11.5 mph - N/A   Clear